GEFSSGP_con_cape1000_006.txt.gz
Probability
100 90 90 100 0 0 0 0 0 0 0 0 0 0 0 0 0 0 0 0 3 45 100 100 100 100 100 100 100 100 100 100 100 100 100 97 97 94 100 100 100 100 100 100 100 100 100 90 100
90 100 100 81 0 0 0 0 0 0 0 0 0 0 0 0 0 0 0 19 48 87 100 100 100 100 100 100 100 100 100 100 100 100 100 100 97 100 100 100 100 100 100 100 100 97 84 81 87
100 100 97 10 0 0 0 0 0 0 0 0 0 0 0 0 0 0 0 68 55 94 100 100 100 100 100 100 100 100 100 100 100 100 100 100 100 100 100 100 100 100 100 100 97 71 45 29 32
100 55 0 0 0 0 0 0 0 0 0 0 0 0 0 0 0 0 39 71 74 100 100 100 100 100 100 100 100 100 100 100 100 100 100 100 100 100 100 100 100 100 100 87 65 19 6 0 13
90 0 0 0 0 0 0 0 0 0 0 0 0 0 0 0 0 13 35 48 48 81 97 100 100 100 100 100 100 100 100 100 100 100 100 100 100 100 100 100 100 100 97 61 16 0 0 10 55
10 0 0 0 0 0 0 0 0 0 0 0 0 0 0 0 0 3 13 19 16 32 94 100 100 100 100 100 100 100 100 100 100 100 100 100 100 100 100 100 100 100 87 29 3 0 3 32 71
13 0 0 0 0 0 0 0 0 0 0 0 0 0 0 0 0 0 3 3 3 23 87 97 100 100 100 100 100 100 100 100 100 100 100 100 100 100 100 100 100 97 84 16 0 0 10 39 65
0 0 0 0 0 0 0 0 0 0 0 0 0 0 0 0 0 0 0 0 3 16 81 97 97 97 100 100 100 100 100 100 100 100 100 100 100 100 100 100 100 61 35 13 0 0 0 42 74
0 0 0 0 0 0 0 0 0 0 0 0 0 0 0 0 0 0 0 0 6 23 35 84 81 81 87 97 100 100 100 100 100 100 100 100 68 81 100 100 100 77 23 13 3 0 3 32 3
0 0 0 0 0 0 0 0 0 0 0 0 0 0 0 0 0 0 0 0 10 23 16 29 58 74 68 81 94 87 84 84 87 71 97 35 0 13 100 100 100 94 45 29 16 3 3 0 0
0 0 0 0 0 0 0 0 0 0 0 0 0 0 0 0 0 0 0 0 3 23 26 16 19 58 26 13 10 6 0 6 10 13 42 6 0 3 55 74 100 61 58 32 42 16 0 0 0
0 0 0 0 0 0 0 0 0 0 0 0 0 0 0 0 0 0 0 0 0 3 19 10 16 26 3 0 0 0 0 0 0 0 10 0 0 0 0 3 6 19 16 16 6 0 0 0 0
0 0 0 0 0 0 0 0 0 0 0 0 0 0 0 0 0 0 0 0 0 0 3 13 16 19 3 0 0 0 0 0 0 0 0 0 0 0 0 0 0 3 0 0 0 0 0 0 0
0 0 0 0 0 0 0 0 0 0 0 0 0 0 0 0 0 0 0 0 0 0 0 3 19 19 3 0 0 0 0 0 0 0 0 0 0 0 0 0 0 0 0 0 0 0 0 0 0
0 0 0 0 0 0 0 0 0 0 0 0 0 0 0 0 0 0 0 0 0 0 0 0 6 3 0 0 0 0 0 0 0 0 0 0 0 0 0 0 0 0 0 0 0 0 0 0 0
0 0 0 0 0 0 0 0 0 0 0 0 0 0 0 0 0 0 0 0 0 0 0 0 0 0 0 0 0 0 0 0 0 0 0 0 0 0 0 0 0 0 0 0 0 0 0 0 0
0 0 0 0 0 0 0 0 0 0 0 0 0 0 0 0 0 0 0 0 0 0 0 0 0 0 0 0 0 0 0 0 0 0 0 0 0 0 0 0 0 0 0 0 0 0 0 0 0
0 0 0 0 0 0 0 0 0 0 0 0 0 0 0 0 0 0 0 0 0 0 0 0 0 0 0 0 0 0 0 0 0 0 0 0 0 0 0 0 0 0 0 0 0 0 0 0 0
0 0 0 0 0 0 0 0 0 0 0 0 0 0 0 0 0 0 0 0 0 0 0 0 0 0 0 0 0 0 0 0 0 0 0 0 0 0 0 0 0 0 0 0 0 0 0 0 0
0 0 0 0 0 0 0 0 0 0 0 0 0 0 0 0 0 0 0 0 0 0 0 0 0 0 0 0 0 0 0 0 0 0 0 0 0 0 0 0 0 0 0 0 0 0 0 0 0
0 0 0 0 0 0 0 0 0 0 0 0 0 0 0 0 0 0 0 0 0 0 0 0 0 0 0 0 0 0 0 0 0 0 0 0 0 0 0 0 0 0 0 0 0 0 0 0 0
0 0 0 0 0 0 0 0 0 0 0 0 0 0 0 0 0 0 0 0 0 0 0 0 0 0 0 0 0 0 0 0 0 0 0 0 0 0 0 0 0 0 0 0 0 0 0 0 0
0 0 0 0 0 0 0 0 0 0 0 0 0 0 0 0 0 0 0 0 0 0 0 0 0 0 0 0 0 0 0 0 0 0 0 0 0 0 0 0 0 0 0 0 0 0 0 0 0
0 0 0 0 0 0 0 0 0 0 0 0 0 0 0 0 0 0 0 0 0 0 0 0 0 0 0 0 0 0 0 0 0 0 0 0 0 0 0 0 0 0 0 0 0 0 0 0 0
0 0 0 0 0 0 0 0 0 0 0 0 0 0 0 0 0 0 3 3 0 0 0 0 0 0 0 0 0 0 0 0 0 0 0 0 0 0 0 0 0 0 0 0 0 0 0 0 0
0 0 0 0 0 0 0 0 0 0 0 0 0 0 0 0 0 0 0 0 0 0 0 0 0 0 0 0 0 0 0 0 0 0 0 0 0 0 0 0 0 0 0 0 0 0 0 0 0
0 0 0 0 0 0 0 0 0 0 0 0 0 0 0 0 0 0 0 0 0 0 0 0 0 0 0 0 0 0 0 0 0 0 0 0 0 0 0 0 0 0 0 0 0 0 0 0 0
0 0 0 0 0 0 0 0 0 0 0 0 0 0 0 0 0 0 0 0 0 0 0 0 0 0 0 0 0 0 0 0 0 0 0 0 0 0 0 0 0 0 0 0 0 0 0 0 0
0 0 0 0 0 0 0 0 0 0 0 0 0 0 0 0 0 3 6 0 0 0 0 0 0 0 0 0 0 0 0 0 0 0 0 0 0 0 0 0 0 0 0 0 0 0 0 0 0
0 0 0 0 0 0 0 0 0 0 0 0 0 0 0 0 0 0 3 0 0 0 0 0 0 0 0 0 0 0 0 0 0 0 0 0 0 0 0 0 0 0 0 0 0 0 0 0 0

GEFSSGP_con_cape1000_012.txt.gz
Probability
100 77 42 0 0 0 0 0 0 0 0 0 0 0 0 0 0 0 0 0 0 0 26 100 100 100 100 100 100 100 100 100 100 100 97 97 90 97 100 100 100 100 100 97 97 100 100 100 100
90 94 29 0 0 0 0 0 0 0 0 0 0 0 0 0 0 0 0 0 0 0 77 100 100 100 100 100 100 100 100 100 100 100 100 97 90 100 100 100 100 100 100 90 87 94 100 100 100
100 74 0 0 0 0 0 0 0 0 0 0 0 0 0 0 0 0 0 0 0 0 94 100 100 100 100 100 100 100 100 100 100 100 100 97 100 100 100 100 100 100 90 68 71 74 81 97 100
16 0 0 0 0 0 0 0 0 0 0 0 0 0 0 0 0 0 0 0 0 13 84 100 100 100 100 100 100 100 100 100 100 100 100 100 100 100 100 100 100 97 71 42 19 32 65 100 100
0 0 0 0 0 0 0 0 0 0 0 0 0 0 0 0 0 0 0 0 0 13 65 100 100 100 100 100 100 100 100 100 100 100 100 100 100 100 100 100 100 84 35 6 10 45 81 94 100
0 0 0 0 0 0 0 0 0 0 0 0 0 0 0 0 0 0 0 0 0 13 71 97 100 100 100 100 100 100 100 100 100 100 100 100 100 100 100 100 97 58 10 3 35 84 90 97 100
0 0 0 0 0 0 0 0 0 0 0 0 0 0 0 0 0 0 0 0 0 3 26 81 100 100 100 100 100 100 100 100 100 100 100 100 100 100 100 100 81 16 0 19 58 87 94 100 100
0 0 0 0 0 0 0 0 0 0 0 0 0 0 0 0 0 0 0 0 0 3 10 32 68 97 97 100 100 100 100 100 100 100 100 100 100 100 100 97 42 0 0 13 48 87 97 100 100
0 0 0 0 0 0 0 0 0 0 0 0 0 0 0 0 0 0 0 0 0 0 3 3 16 26 65 94 100 100 100 100 100 100 100 100 74 87 100 87 23 0 0 13 58 74 77 97 87
0 0 0 0 0 0 0 0 0 0 0 0 0 0 0 0 0 0 0 0 0 0 6 0 0 3 10 87 90 65 77 71 71 52 68 6 0 3 61 87 32 0 3 42 61 16 23 3 0
0 0 0 0 0 0 0 0 0 0 0 0 0 0 0 0 0 0 0 0 0 0 6 6 0 0 0 19 6 3 0 0 0 6 6 0 0 0 3 0 0 0 0 0 0 0 0 0 0
0 0 0 0 0 0 0 0 0 0 0 0 0 0 0 0 0 0 0 0 0 0 0 6 3 0 0 0 3 0 0 0 0 0 3 0 0 0 0 0 0 0 0 0 0 0 0 0 0
0 0 0 0 0 0 0 0 0 0 0 0 0 0 0 0 0 0 0 0 0 0 6 6 10 0 0 0 3 0 0 0 0 0 0 0 0 0 0 0 0 0 0 0 0 0 0 0 0
0 0 0 0 0 0 0 0 0 0 0 0 0 0 0 0 0 0 0 0 0 0 6 6 10 3 0 0 3 3 0 0 0 0 0 0 0 0 0 0 0 0 0 0 0 0 0 0 0
0 0 0 0 0 0 0 0 0 0 0 0 0 0 0 0 0 0 0 0 0 0 10 10 6 3 0 0 3 3 0 0 0 0 0 0 0 0 0 0 0 0 0 0 0 0 0 0 0
0 0 0 0 0 0 0 0 0 0 0 0 0 0 0 0 0 0 0 0 0 0 3 13 39 13 3 0 0 0 0 0 0 0 0 0 0 0 0 0 0 0 0 0 0 0 0 0 0
0 0 0 0 0 0 0 0 0 0 0 0 0 0 0 0 0 0 0 0 0 0 0 6 13 16 3 3 0 0 0 0 0 0 0 0 0 0 0 0 0 0 0 0 0 0 0 0 0
0 0 0 0 0 0 0 0 0 0 0 0 0 0 0 0 0 0 0 0 0 0 0 3 6 10 3 0 0 0 0 0 0 0 0 0 0 0 0 0 0 0 0 0 0 0 0 0 0
0 0 0 0 0 0 0 0 0 0 0 0 0 0 0 0 0 0 0 0 0 0 0 0 0 0 0 0 0 0 0 0 0 0 0 0 0 0 0 0 0 0 0 0 0 0 0 0 0
0 0 0 0 0 0 0 0 0 0 0 0 0 0 0 0 0 0 0 0 0 0 0 0 0 0 0 0 0 0 0 0 0 0 0 0 0 0 0 0 0 0 0 0 0 0 0 0 0
0 0 0 0 0 0 0 0 0 0 0 0 0 0 0 0 0 0 0 0 0 0 0 0 0 0 0 0 0 0 0 0 0 0 0 0 0 0 0 0 0 0 0 0 0 0 0 0 0
0 0 0 0 0 0 0 0 0 0 0 0 0 0 0 0 0 0 0 0 0 0 0 0 0 0 0 0 0 0 0 0 0 0 0 0 0 0 0 0 0 0 0 0 0 0 0 0 0
0 0 0 0 0 0 0 0 0 0 0 0 0 0 0 0 0 0 0 0 0 0 0 0 0 0 0 0 0 0 0 0 0 0 0 0 0 0 0 0 0 0 0 0 0 0 0 0 0
0 0 0 0 0 0 0 0 0 0 0 0 0 0 0 0 0 0 0 0 0 0 0 0 0 0 0 0 0 0 0 0 0 0 0 0 0 0 0 0 0 0 0 0 0 0 0 0 0
0 0 0 0 0 0 0 0 0 0 0 0 0 0 0 0 0 0 0 0 0 0 0 0 0 0 0 0 0 0 0 0 0 0 0 0 0 0 0 0 0 0 0 0 0 0 0 0 0
0 0 0 0 0 0 0 0 0 0 0 0 0 0 0 0 0 0 0 0 0 0 0 0 0 0 0 0 0 0 0 0 0 0 0 0 0 0 0 0 0 0 0 0 0 0 0 0 0
0 0 0 0 0 0 0 0 0 0 0 0 0 0 0 0 0 0 0 0 0 0 0 0 0 0 0 0 0 0 0 0 0 0 0 0 0 0 0 0 0 0 0 0 0 0 0 0 0
0 0 0 0 0 0 0 0 0 0 0 0 0 0 0 0 0 0 0 0 0 0 0 0 0 0 0 0 0 0 0 0 0 0 0 0 0 0 0 0 0 0 0 0 0 0 0 0 0
0 0 0 0 0 0 0 0 0 0 0 0 0 0 0 0 0 0 0 0 0 0 0 0 0 0 0 0 0 0 0 0 0 0 0 0 0 0 0 0 0 0 0 0 0 0 0 0 0
0 0 0 0 0 0 0 0 0 0 0 0 0 0 0 0 0 0 0 0 0 0 0 0 0 0 0 0 0 0 0 0 0 0 0 0 0 0 0 0 0 0 0 0 0 0 0 0 0

GEFSSGP_con_cape1000_018.txt.gz
Probability
100 100 100 100 0 0 0 0 0 0 0 0 0 0 0 0 0 0 3 0 0 0 16 100 100 100 100 100 100 100 100 100 100 97 94 94 94 94 100 94 87 74 81 87 87 94 94 97 100
100 100 100 3 0 0 0 0 0 0 0 0 0 0 0 0 0 0 0 0 0 0 23 97 100 100 100 100 97 97 100 100 100 100 97 94 100 97 100 94 87 74 77 84 87 94 94 97 100
100 100 55 0 0 0 0 0 0 0 0 0 0 0 0 0 0 0 0 0 0 0 19 97 100 100 100 100 100 100 100 100 100 100 97 90 100 97 100 100 90 74 65 68 77 97 97 97 100
100 90 0 0 0 0 0 0 0 0 0 0 0 0 0 0 0 0 0 0 0 0 13 97 100 100 100 100 100 100 100 100 100 100 97 100 100 94 94 100 77 45 19 29 68 90 97 97 100
90 26 0 0 0 0 0 0 0 0 0 0 0 0 0 0 0 0 3 6 0 0 13 81 100 100 100 100 100 100 100 100 100 100 100 100 100 97 97 90 52 16 10 35 65 90 94 97 100
87 0 0 0 0 0 0 0 0 0 0 0 0 0 0 0 0 0 6 10 0 0 16 58 100 100 100 100 100 100 100 100 100 100 100 100 100 100 97 84 26 6 16 55 87 90 97 100 97
77 0 0 0 0 0 0 0 0 0 0 0 0 0 0 0 0 0 0 0 3 0 0 39 94 94 100 100 100 100 100 100 100 100 100 100 100 100 97 52 13 10 35 58 90 97 100 94 84
58 0 0 0 0 0 0 0 0 0 0 0 0 0 0 0 0 3 0 0 0 3 0 10 77 90 81 87 100 100 100 100 100 100 100 100 100 97 81 13 13 23 42 74 94 100 97 77 48
29 0 0 0 0 0 0 0 0 0 0 0 0 0 0 0 0 0 0 0 16 10 6 6 26 52 90 90 97 100 100 100 100 100 100 100 74 39 29 6 42 39 48 55 90 97 71 39 26
68 0 0 0 0 0 0 0 0 0 0 0 0 0 0 0 0 0 0 0 13 13 10 3 3 32 71 77 100 100 97 100 87 77 58 26 13 6 0 3 29 35 35 32 65 68 26 0 0
29 0 0 0 0 0 0 0 0 0 0 0 0 0 0 3 0 0 0 0 0 10 32 3 0 6 32 100 100 100 100 100 65 10 16 6 6 6 3 3 19 23 3 0 26 3 0 0 0
0 0 0 0 0 0 0 0 0 0 0 0 0 0 0 3 0 6 0 0 0 3 29 16 0 3 6 55 94 84 84 90 77 23 3 3 0 0 0 3 3 6 0 0 0 3 0 0 0
0 0 0 0 0 0 0 0 0 0 0 0 0 0 0 0 0 0 0 0 3 6 45 29 16 6 3 26 87 52 45 32 32 77 13 0 0 0 0 0 13 0 0 0 0 0 0 0 0
0 0 0 0 0 0 0 0 0 0 0 0 0 0 0 0 0 0 0 0 3 10 48 77 55 29 10 48 90 61 52 81 32 48 16 0 0 0 0 0 3 0 0 0 0 0 0 0 0
0 0 0 0 0 0 0 0 0 0 0 0 0 0 0 0 0 0 0 0 3 26 61 90 97 94 71 39 52 65 71 61 58 65 16 3 0 0 0 0 0 0 0 0 0 0 0 0 0
0 0 0 0 0 0 0 0 0 0 0 0 0 0 0 0 0 0 0 0 3 29 65 90 100 97 97 94 94 94 81 68 90 74 29 3 0 0 0 0 0 0 0 0 0 0 0 0 0
0 0 0 0 0 0 0 0 0 0 0 0 0 0 0 0 0 3 3 0 10 48 77 87 100 100 100 97 90 87 84 100 97 74 71 23 0 0 0 0 0 0 0 0 0 0 0 0 0
0 0 0 0 0 0 0 0 0 0 0 0 0 0 0 0 0 0 13 16 26 52 65 87 94 100 100 100 94 81 87 81 90 87 97 45 16 0 0 10 0 0 19 29 16 3 10 6 3
0 0 0 0 0 0 0 0 0 0 0 0 0 0 0 0 0 0 13 16 26 32 52 65 74 90 100 100 100 90 71 90 87 90 87 90 65 19 10 19 10 29 42 65 16 45 13 10 3
0 0 0 0 0 0 0 0 0 0 0 0 0 0 0 0 0 0 26 35 32 39 61 71 100 100 100 100 100 100 97 90 84 94 97 84 77 45 10 16 19 55 94 84 61 61 45 6 0
0 0 0 0 0 0 0 0 0 0 0 0 0 0 0 0 0 0 10 16 26 29 58 45 100 100 100 100 100 97 100 90 94 97 94 90 74 48 48 13 19 61 74 87 84 74 55 13 0
0 0 0 0 0 0 0 0 0 0 0 0 0 0 0 0 0 3 6 10 16 32 55 71 90 94 90 100 100 100 100 94 90 90 97 94 81 58 42 32 32 45 58 61 77 55 68 52 19
0 0 0 0 0 0 0 0 0 0 0 0 0 0 0 0 0 3 3 6 13 29 45 55 68 68 74 77 97 94 90 90 71 77 77 77 74 65 65 58 32 19 16 35 42 39 48 48 39
0 0 0 0 0 0 0 0 0 0 0 0 0 0 0 0 0 3 0 16 23 35 48 48 65 68 65 68 84 74 81 84 65 71 68 77 74 68 55 48 35 29 13 3 23 23 26 35 26
0 0 0 0 0 0 0 0 0 0 0 0 0 0 0 3 3 6 3 16 26 45 61 61 61 65 65 45 42 45 55 55 55 61 71 65 58 45 29 26 29 35 13 0 0 3 13 6 6
0 0 0 0 0 0 0 0 0 0 0 0 0 0 0 10 10 23 13 26 42 61 68 71 61 65 58 48 26 16 29 52 48 61 55 48 45 32 29 26 26 16 10 0 0 3 0 0 3
0 0 0 0 0 0 0 0 0 0 0 0 0 0 6 13 19 26 32 32 77 94 97 90 81 74 65 61 45 29 23 42 45 52 39 45 35 23 23 16 13 10 3 0 0 0 0 0 3
0 0 0 0 0 0 0 0 0 0 0 0 0 0 0 6 3 23 23 29 84 94 97 97 90 84 81 61 45 35 48 68 68 55 48 39 32 23 29 19 6 3 3 3 0 0 0 0 0
0 0 0 0 0 0 0 0 0 0 0 0 0 0 0 0 3 3 29 32 65 94 97 97 97 90 81 71 65 45 48 61 68 65 61 55 42 39 26 13 6 0 3 3 0 0 0 0 0
0 0 0 0 0 0 0 0 0 0 0 0 0 0 0 0 0 0 3 13 45 90 94 97 97 94 90 87 81 65 68 68 58 52 61 61 42 35 19 13 6 0 3 0 0 0 0 0 0

GEFSSGP_con_cape1000_024.txt.gz
Probability
100 100 100 100 100 58 0 0 0 0 0 0 0 0 0 0 0 29 35 0 26 84 94 100 100 100 100 87 87 84 77 81 84 87 84 84 94 84 71 61 58 61 77 87 90 94 94 100 100
100 100 100 100 97 0 0 0 0 0 0 0 0 0 0 0 0 0 3 3 19 84 94 100 100 100 100 97 84 84 90 87 81 77 77 87 84 87 71 55 45 48 74 87 90 94 97 100 100
100 100 100 100 3 0 0 0 0 0 0 0 0 0 0 0 0 0 0 0 6 71 87 100 100 100 100 97 87 90 94 87 84 81 77 87 87 90 68 42 26 29 52 65 94 97 97 100 100
100 100 100 58 0 0 0 0 0 0 0 0 0 0 0 0 0 0 0 0 3 55 100 100 100 100 100 97 87 87 94 94 90 87 90 94 94 84 65 35 19 10 19 58 87 90 97 97 100
100 100 100 13 0 0 0 0 0 0 0 0 0 0 0 0 0 0 0 0 3 42 97 97 100 100 97 100 87 87 97 97 90 87 94 97 97 87 55 26 6 0 6 29 61 87 94 94 81
100 100 42 0 0 0 0 0 0 0 0 0 0 0 0 0 0 0 0 0 6 42 90 87 100 100 97 94 90 87 94 94 94 90 100 100 94 84 55 23 6 0 10 29 65 87 74 68 45
100 100 13 0 0 0 0 0 0 0 0 0 0 0 0 0 0 0 0 0 6 16 84 65 84 97 94 90 90 94 97 97 97 97 100 100 97 84 39 10 0 0 13 39 65 77 45 29 0
100 100 6 0 0 0 0 0 0 0 0 0 0 0 0 0 0 0 0 0 0 6 58 61 6 32 35 71 100 90 90 97 97 94 97 97 97 77 29 3 0 0 13 39 52 52 23 3 0
97 100 29 0 0 0 0 0 0 0 0 0 0 0 0 0 0 0 0 0 0 6 32 52 32 32 29 29 81 97 94 97 97 97 97 94 65 13 13 3 10 13 13 10 23 19 19 0 0
94 100 10 0 0 0 0 0 0 0 0 0 0 0 0 0 0 0 0 0 3 0 10 58 52 48 35 26 58 84 77 84 45 35 65 29 0 0 0 6 10 16 6 6 23 29 26 6 0
19 16 19 0 0 0 0 0 0 0 0 0 0 0 0 0 0 0 0 0 0 0 0 39 42 45 32 74 61 77 87 71 48 10 0 3 0 0 0 0 6 0 3 0 3 6 0 0 0
16 3 0 0 0 0 0 0 0 0 0 0 0 0 0 0 0 0 0 0 0 0 0 3 26 35 39 32 52 52 39 32 23 26 0 0 0 0 0 0 0 0 0 0 0 6 0 0 0
13 0 0 0 0 0 0 0 0 0 0 0 0 0 0 0 0 0 0 0 0 0 0 0 0 6 19 55 58 19 29 3 10 42 13 0 3 0 0 0 6 0 0 0 0 0 0 0 0
0 0 0 0 0 0 0 0 0 0 0 0 0 0 0 0 0 0 0 0 0 0 3 0 0 0 6 55 48 26 10 71 13 29 6 0 0 0 0 0 0 0 0 0 0 0 0 0 0
0 0 0 0 0 0 0 0 0 0 0 0 0 0 0 0 0 0 0 0 0 0 0 3 3 0 6 29 35 39 35 10 16 35 0 0 0 0 0 0 0 0 0 0 0 0 0 0 0
0 0 0 0 0 0 0 0 0 0 0 0 0 0 0 0 0 0 0 0 0 0 0 10 19 10 10 16 77 52 42 26 39 16 3 0 0 0 0 0 0 0 0 0 0 0 0 0 0
0 0 0 0 0 0 0 0 0 0 0 0 0 0 0 0 0 0 0 0 0 0 0 29 61 81 71 74 94 94 68 48 42 32 16 6 0 0 0 0 0 0 0 0 0 0 0 0 0
0 0 0 0 0 0 0 0 0 0 0 0 0 0 0 0 0 0 0 0 0 0 3 13 74 100 100 97 94 100 100 81 68 52 35 10 3 0 0 3 0 0 0 3 0 10 16 0 0
0 0 0 0 0 0 0 0 0 0 0 0 0 0 0 0 0 0 0 3 3 3 6 29 84 94 97 100 100 100 100 87 68 58 42 42 26 3 0 0 0 3 16 19 13 35 6 0 0
0 0 0 0 0 0 0 0 0 0 0 0 0 0 0 0 0 3 6 6 6 16 26 35 61 77 87 100 100 100 100 87 68 68 58 52 52 29 13 10 6 35 45 39 19 19 0 0 0
0 0 0 0 0 0 0 0 0 0 0 0 0 0 0 0 0 3 10 16 32 35 39 32 61 84 97 100 100 100 100 97 90 77 71 77 74 52 48 19 6 23 45 32 35 26 6 0 0
0 0 0 0 0 0 0 0 0 0 0 0 0 0 0 0 3 10 29 52 48 48 39 48 71 90 100 100 100 100 100 94 97 87 94 90 90 87 74 39 29 29 42 35 16 10 3 0 0
0 0 0 0 0 0 0 0 0 0 0 0 0 0 0 0 3 16 48 52 35 32 39 45 81 87 94 94 100 100 100 97 97 97 87 94 94 97 90 71 29 16 23 10 10 3 0 0 0
0 0 0 0 0 0 0 0 0 0 0 0 0 0 0 0 3 13 32 35 32 48 55 71 74 90 87 87 94 94 94 94 90 90 81 90 94 100 94 77 45 32 13 13 6 6 3 3 0
0 0 0 0 0 0 0 0 0 0 0 0 0 0 0 0 6 16 29 61 71 77 68 77 94 87 77 71 71 71 77 68 74 84 90 87 94 87 87 87 68 45 29 26 10 0 6 3 0
0 0 0 0 0 0 0 0 0 0 0 0 0 3 13 26 42 45 45 84 87 90 90 90 94 84 74 58 39 32 55 55 52 55 71 71 77 81 84 84 77 65 32 23 19 10 0 0 0
0 0 0 0 0 0 0 0 0 0 0 0 3 13 42 58 55 35 48 87 97 97 97 90 97 90 77 45 29 23 23 32 32 26 35 58 58 58 68 74 68 61 55 39 13 6 0 0 0
0 0 0 0 0 0 0 0 0 0 0 0 0 13 42 48 35 23 29 58 94 97 97 97 97 94 87 55 29 29 26 29 32 42 48 48 52 61 65 55 39 42 35 19 0 0 0 0 0
0 0 0 0 0 0 0 0 0 0 0 0 0 0 6 10 10 10 19 29 65 97 97 97 97 94 90 48 32 26 42 55 48 55 68 65 65 68 48 42 39 29 13 10 0 0 0 0 0
0 0 0 0 0 0 0 0 0 0 0 0 0 0 0 0 0 0 3 19 45 74 97 97 97 94 94 81 52 42 58 74 81 68 68 77 61 61 52 48 45 29 10 6 3 0 0 0 0

GEFSSGP_con_cape1000_030.txt.gz
Probability
100 94 94 94 0 0 0 0 0 0 0 0 0 0 0 0 0 0 0 29 16 35 100 100 100 100 100 100 100 100 100 100 100 100 100 100 94 81 74 71 81 84 84 90 94 100 100 100 100
97 100 100 45 0 0 0 0 0 0 0 0 0 0 0 0 0 3 16 45 26 55 100 100 100 100 100 100 100 97 97 100 97 94 100 100 97 81 68 65 74 77 87 94 94 97 97 97 100
97 100 97 10 0 0 0 0 0 0 0 0 0 0 0 0 0 0 19 29 23 55 97 100 100 100 100 100 100 100 97 94 90 94 94 100 94 71 48 52 52 55 71 90 90 90 87 87 90
100 100 13 0 0 0 0 0 0 0 0 0 0 0 0 0 0 3 39 29 16 42 90 100 100 100 100 100 100 100 97 94 94 97 97 97 81 58 32 32 26 39 55 65 87 71 55 48 68
97 42 0 0 0 0 0 0 0 0 0 0 0 0 0 0 0 13 35 23 23 39 84 100 100 100 100 100 100 100 97 97 97 97 97 94 71 55 26 13 13 19 29 39 45 45 16 13 32
19 3 0 0 0 0 0 0 0 0 0 0 0 0 0 0 3 13 26 19 29 58 87 100 100 100 100 100 100 100 100 97 97 97 100 90 81 52 19 3 3 16 23 32 45 26 13 0 0
39 10 0 0 0 0 0 0 0 0 0 0 0 0 0 0 0 3 23 32 42 48 65 94 97 100 100 100 100 100 100 97 97 100 100 97 84 45 19 0 3 10 23 23 23 13 13 0 0
26 3 0 0 0 0 0 0 0 0 0 0 0 0 0 0 0 3 23 23 23 6 45 74 68 48 61 90 100 100 97 97 97 100 100 97 81 29 13 0 6 10 3 6 10 10 0 0 0
0 0 0 0 0 0 0 0 0 0 0 0 0 0 0 0 0 3 3 3 6 3 3 19 19 13 3 13 94 97 97 97 97 100 97 97 13 10 3 0 3 0 0 6 3 0 0 3 0
0 0 0 0 0 0 0 0 0 0 0 0 0 0 0 0 0 0 0 0 0 6 3 0 0 0 0 3 16 6 42 48 42 45 71 0 0 0 0 0 10 0 0 3 13 10 6 0 0
0 0 0 0 0 0 0 0 0 0 0 0 0 0 0 0 0 0 0 0 0 0 3 0 0 0 0 0 0 0 0 0 0 0 0 0 0 0 0 0 6 0 0 0 0 3 0 0 0
3 0 0 0 0 0 0 0 0 0 0 0 0 0 0 0 0 0 0 0 0 3 3 0 0 0 0 0 0 0 0 0 0 0 0 0 0 0 0 0 0 0 0 0 0 0 0 0 0
0 0 0 0 0 0 0 0 0 0 0 0 0 0 0 0 0 0 0 0 0 3 3 3 0 0 0 0 0 0 0 0 0 0 0 0 0 0 0 0 0 0 0 0 0 0 0 0 0
0 0 0 0 0 0 0 0 0 0 0 0 0 0 0 0 0 0 0 0 0 3 10 10 19 3 0 0 0 0 0 0 0 0 0 0 0 0 0 0 0 0 0 0 0 0 0 0 0
0 0 0 0 0 0 0 0 0 0 0 0 0 0 0 0 0 0 0 0 0 0 13 13 19 6 6 0 0 0 0 0 0 0 0 0 0 0 0 0 0 0 0 0 0 0 0 0 0
0 0 0 0 0 0 0 0 0 0 0 0 0 0 0 0 0 0 0 0 0 0 10 23 55 10 6 3 0 0 0 0 0 0 0 0 0 0 0 0 0 0 0 0 0 0 0 0 0
0 0 0 0 0 0 0 0 0 0 0 0 0 0 0 0 0 0 0 0 0 0 0 3 26 23 3 0 0 0 0 0 0 0 0 0 0 0 0 0 0 0 0 0 0 0 0 0 0
0 0 0 0 0 0 0 0 0 0 0 0 0 0 0 0 0 0 0 0 0 0 0 6 6 10 10 3 0 0 0 0 0 0 0 0 0 0 0 0 0 0 0 0 0 0 0 0 0
0 0 0 0 0 0 0 0 0 0 0 0 0 0 0 0 0 0 0 0 0 0 0 0 0 0 6 3 0 0 0 0 0 0 0 0 0 0 0 0 0 0 0 0 0 0 0 0 0
0 0 0 0 0 0 0 0 0 0 0 0 0 0 0 0 0 0 0 0 3 3 3 10 6 3 13 6 6 0 0 0 0 0 0 0 0 0 0 0 0 0 0 0 0 0 0 0 0
0 0 0 0 0 0 0 0 0 0 0 0 0 0 0 0 0 0 0 0 3 6 16 23 39 35 26 23 13 6 0 0 0 0 0 0 0 0 0 0 0 0 0 0 0 0 0 0 0
0 0 0 0 0 0 0 0 0 0 0 0 0 0 0 0 0 0 3 3 10 19 42 58 65 77 81 71 52 32 6 3 0 0 0 0 0 0 0 0 0 0 0 0 0 0 0 0 0
0 0 0 0 0 0 0 0 0 0 0 0 0 0 0 0 0 3 10 13 26 45 58 77 77 84 81 77 58 48 26 13 3 0 0 3 0 0 0 0 0 0 0 0 0 0 0 0 0
0 0 0 0 0 0 0 0 0 0 0 0 0 0 0 3 3 10 16 19 23 39 61 74 77 77 68 74 61 58 58 45 19 6 0 0 0 0 0 0 0 0 0 0 0 0 0 0 0
0 0 0 0 0 0 0 0 0 0 0 0 0 0 3 3 3 10 16 19 19 32 52 61 65 65 58 58 58 58 48 45 26 10 6 0 0 0 0 0 0 0 0 0 0 0 0 0 0
0 0 0 0 0 0 0 0 0 0 0 0 0 3 3 3 3 3 16 19 23 39 39 52 52 52 42 42 45 39 42 26 13 10 3 3 0 0 0 3 0 0 0 0 0 0 0 0 0
0 0 0 0 0 0 0 0 0 0 0 0 0 0 3 3 3 3 6 6 13 26 45 48 45 35 35 29 10 13 13 13 6 3 3 3 0 3 3 0 0 0 0 0 0 0 0 0 0
0 0 0 0 0 0 0 0 0 0 0 0 0 0 0 0 3 3 3 6 10 16 29 52 32 32 19 10 10 10 3 6 3 3 0 0 0 0 0 0 0 0 0 0 0 0 0 0 0
0 0 0 0 0 0 0 0 0 0 0 0 0 0 0 0 0 3 3 3 6 10 26 32 26 19 13 13 6 6 0 0 0 0 0 0 0 0 0 0 0 0 0 0 0 0 0 0 0
0 0 0 0 0 0 0 0 0 0 0 0 0 0 0 0 0 0 0 3 10 13 16 29 29 23 16 13 6 3 0 0 0 0 0 0 0 0 0 0 0 0 0 0 0 0 0 0 0

GEFSSGP_con_cape1000_036.txt.gz
Probability
100 90 61 0 0 0 0 0 0 0 0 0 0 0 0 0 0 0 0 0 0 0 77 100 100 100 100 100 100 100 100 100 100 97 94 84 65 61 68 65 77 77 90 100 100 100 100 100 100
94 100 26 0 0 0 0 0 0 0 0 0 0 0 0 0 0 0 3 6 0 3 87 97 100 100 100 100 100 100 100 100 100 100 94 84 71 68 61 68 65 68 74 77 94 100 100 100 100
100 94 13 0 0 0 0 0 0 0 0 0 0 0 0 0 0 0 6 6 0 19 84 97 100 100 100 100 100 100 100 100 100 100 90 87 68 55 45 39 42 48 52 65 71 81 87 97 97
84 0 0 0 0 0 0 0 0 0 0 0 0 0 0 0 0 6 6 3 0 48 77 97 100 100 100 100 100 97 97 94 94 97 87 81 48 29 29 26 10 6 16 29 42 45 65 81 90
0 0 0 0 0 0 0 0 0 0 0 0 0 0 0 0 6 6 6 0 10 45 71 100 100 100 100 100 100 100 94 94 97 97 90 81 39 26 10 10 3 3 0 10 13 23 29 39 65
0 0 0 0 0 0 0 0 0 0 0 0 0 0 0 6 6 6 6 0 6 42 81 100 100 100 100 100 100 100 97 97 94 90 90 81 45 29 13 6 0 0 0 3 3 0 3 16 35
0 0 0 0 0 0 0 0 0 0 0 0 0 0 0 3 6 3 0 0 6 35 81 100 100 100 100 100 100 100 100 100 97 97 94 87 52 29 10 3 0 0 0 3 3 0 0 10 35
0 0 0 0 0 0 0 0 0 0 0 0 0 0 0 0 3 0 0 0 3 13 71 84 77 84 81 100 100 100 100 100 100 97 97 84 58 29 13 3 0 0 0 0 0 0 0 16 32
0 0 0 0 0 0 0 0 0 0 0 0 0 0 0 0 10 6 3 0 3 16 26 42 35 13 16 19 100 100 100 100 100 97 97 84 13 10 6 0 0 0 0 0 0 0 0 0 10
0 0 0 0 0 0 0 0 0 0 0 0 0 0 0 3 10 10 3 0 3 6 13 13 10 6 3 16 39 26 81 68 55 42 48 3 0 0 0 0 0 0 0 0 0 0 0 0 0
0 0 0 0 0 0 0 0 0 0 0 0 0 0 0 6 16 10 6 0 3 3 13 19 6 3 0 0 3 3 3 3 6 3 0 0 0 0 0 0 0 0 0 0 0 0 0 0 0
0 0 0 0 0 0 0 0 0 0 0 0 0 0 0 3 10 3 0 0 0 0 0 6 6 0 0 0 3 0 3 0 0 0 0 0 0 0 0 0 0 0 0 0 0 0 0 0 0
0 0 0 0 0 0 0 0 0 0 0 0 0 0 0 0 0 0 0 0 0 0 3 0 3 0 0 0 0 0 0 0 0 0 0 0 0 0 0 0 0 0 0 0 0 0 0 0 0
0 0 0 0 0 0 0 0 0 0 0 0 0 0 0 0 0 0 0 0 0 0 3 0 0 0 0 0 0 0 0 0 0 0 0 0 0 0 0 0 0 0 0 0 0 0 0 0 0
0 0 0 0 0 0 0 0 0 0 0 0 0 0 0 0 0 0 0 0 0 0 0 3 0 0 0 0 0 0 0 0 0 0 0 0 0 0 0 0 0 0 0 0 0 0 0 0 0
0 0 0 0 0 0 0 0 0 0 0 0 0 0 0 0 0 0 0 0 0 0 0 13 23 6 0 0 0 0 0 0 0 0 0 0 0 0 0 0 0 0 0 0 0 0 0 0 0
0 0 0 0 0 0 0 0 0 0 0 0 0 0 0 0 0 0 0 0 0 0 0 16 23 19 10 3 0 0 0 0 0 0 0 0 0 0 0 0 0 0 0 0 0 0 0 0 0
0 0 0 0 0 0 0 0 0 0 0 0 0 0 0 0 0 0 0 0 0 0 0 26 29 26 13 10 3 3 0 0 0 0 0 0 0 0 0 0 0 0 0 0 0 0 0 0 0
0 0 0 0 0 0 0 0 0 0 0 0 0 0 0 0 0 0 0 0 0 0 0 23 39 42 23 16 10 6 0 0 0 0 0 0 0 0 0 0 0 0 0 0 0 0 0 0 0
0 0 0 0 0 0 0 0 0 0 0 0 0 0 0 0 0 0 3 0 0 0 0 19 32 45 35 23 16 3 0 0 0 0 0 0 0 0 0 0 0 0 0 0 0 0 0 0 0
0 0 0 0 0 0 0 0 0 0 0 0 0 0 0 0 0 0 0 0 0 0 0 6 23 32 29 16 6 0 0 0 0 0 0 0 0 0 0 0 0 0 0 0 0 0 0 0 0
0 0 0 0 0 0 0 0 0 0 0 0 0 0 0 0 0 0 0 0 3 3 0 3 13 23 16 10 10 10 0 0 0 0 0 0 0 0 0 0 0 0 0 0 0 0 0 0 0
0 0 0 0 0 0 0 0 0 0 0 0 0 0 0 0 0 0 0 3 10 16 13 6 10 3 3 6 10 10 10 6 0 0 0 0 0 0 0 0 0 0 0 0 0 0 0 0 0
0 0 0 0 0 0 0 0 0 0 0 0 0 0 0 0 0 3 3 0 13 13 16 13 10 0 3 3 6 10 6 3 0 0 0 0 0 0 0 0 0 0 0 0 0 0 0 0 0
0 0 0 0 0 0 0 0 0 0 0 0 0 0 0 0 0 0 6 6 6 6 10 10 6 3 0 3 6 6 6 3 0 0 3 0 0 0 0 0 0 0 0 0 0 0 0 0 0
0 0 0 0 0 0 0 0 0 0 0 0 0 0 0 0 0 0 0 3 0 6 6 13 13 13 10 13 13 6 3 3 6 3 3 3 0 0 0 0 0 0 0 0 0 0 0 0 0
0 0 0 0 0 0 0 0 0 0 0 0 0 0 0 0 0 0 0 0 0 3 3 6 13 13 10 10 10 10 10 6 6 3 0 0 0 0 0 0 0 0 0 0 0 0 0 0 0
0 0 0 0 0 0 0 0 0 0 0 0 0 0 0 0 0 0 0 0 0 0 3 6 6 10 10 10 10 10 10 3 0 0 0 0 0 0 0 0 0 0 0 0 0 0 0 0 0
0 0 0 0 0 0 0 0 0 0 0 0 0 0 0 0 0 0 0 0 0 0 0 3 6 10 10 10 10 3 3 0 0 0 0 0 0 0 0 0 0 0 0 0 0 0 0 0 0
0 0 0 0 0 0 0 0 0 0 0 0 0 0 0 0 0 0 0 0 0 0 0 0 3 6 10 10 3 0 0 0 0 0 0 0 0 0 0 0 0 0 0 0 0 0 0 0 0

GEFSSGP_con_cape1000_042.txt.gz
Probability
100 100 100 81 0 0 0 0 0 0 0 0 0 0 0 0 0 6 35 0 0 39 97 100 100 100 100 100 100 100 100 97 94 87 87 74 77 68 71 74 81 87 90 94 97 100 100 100 100
100 100 94 29 0 0 0 0 0 0 0 0 0 0 0 0 0 3 3 0 3 39 97 97 100 100 100 100 100 100 100 100 100 94 77 61 65 58 61 61 68 74 81 87 94 94 94 97 100
100 97 65 0 0 0 0 0 0 0 0 0 0 0 0 0 0 0 0 0 3 29 87 100 100 100 100 100 100 100 100 100 100 90 74 65 58 55 52 55 55 68 71 71 77 84 90 94 90
100 94 13 0 0 0 0 0 0 0 0 0 0 0 0 0 0 0 3 3 3 29 52 100 100 100 100 100 100 100 100 100 100 90 81 65 55 39 32 26 29 35 35 48 55 71 74 87 90
87 42 0 0 0 0 0 0 0 0 0 0 0 0 0 0 0 0 3 3 3 19 39 100 100 100 100 100 100 100 100 97 94 94 84 61 35 26 13 3 6 16 19 16 35 39 45 74 90
81 3 0 0 0 0 0 0 0 0 0 0 0 0 0 13 10 10 3 0 0 10 32 84 100 100 100 100 100 100 100 97 94 94 87 45 29 19 16 3 3 3 10 10 10 19 26 42 77
68 0 0 0 0 0 0 0 0 0 0 0 0 0 0 3 19 6 3 0 0 0 13 74 90 97 100 100 100 100 100 97 94 97 87 48 29 16 13 0 0 0 3 0 0 6 16 52 68
52 0 0 0 0 0 0 0 0 0 0 0 0 0 0 0 19 13 3 0 0 0 3 42 81 84 77 94 100 100 100 100 97 97 94 55 26 19 13 0 0 0 3 0 0 6 16 52 81
19 0 0 0 0 0 0 0 0 0 0 0 0 0 0 3 6 10 13 0 0 0 0 13 45 65 65 74 97 100 100 100 100 97 90 77 29 13 13 0 0 0 0 0 0 3 6 26 71
29 0 0 0 0 0 0 0 0 0 0 0 0 0 0 6 6 6 3 0 0 0 3 16 29 35 39 52 97 100 97 100 100 90 74 65 10 6 0 0 0 0 0 0 0 0 3 0 3
10 0 0 0 0 0 0 0 0 0 0 0 0 0 0 3 23 10 0 0 0 6 16 16 39 32 32 87 97 100 97 97 87 48 71 58 6 3 0 0 0 0 0 0 3 0 0 0 0
3 0 0 0 0 0 0 0 0 0 0 0 0 0 13 10 23 23 6 0 0 0 16 16 32 35 42 61 77 100 97 97 87 55 32 45 13 3 0 0 0 0 0 0 0 0 0 0 0
0 0 0 0 0 0 0 0 0 0 0 0 0 0 0 10 3 6 0 0 0 3 45 42 42 32 39 42 81 81 90 84 77 74 32 26 16 0 0 0 0 0 0 0 0 0 0 0 0
0 0 0 0 0 0 0 0 0 0 0 0 0 0 0 3 6 0 0 0 0 3 19 45 55 39 35 42 90 87 71 97 61 65 42 10 3 0 0 0 0 0 0 0 0 0 0 0 0
0 0 0 0 0 0 0 0 0 0 0 0 0 0 0 0 0 3 3 0 0 10 13 29 65 55 39 26 29 42 74 74 77 65 35 6 3 0 3 0 0 0 0 0 0 0 0 0 0
0 0 0 0 0 0 0 0 0 0 0 0 0 0 0 0 3 0 0 3 6 16 10 26 87 74 61 65 87 87 77 68 77 58 45 13 3 3 10 16 10 0 0 0 0 0 0 0 0
0 0 0 0 0 0 0 0 0 0 0 0 0 0 0 0 0 0 3 0 3 6 26 39 74 90 84 84 100 97 74 90 84 71 55 32 13 6 19 32 26 10 3 3 0 0 0 0 0
0 0 0 0 0 0 0 0 0 0 0 0 0 0 0 0 0 0 3 6 13 13 13 48 84 100 100 100 100 100 100 94 87 74 74 42 35 23 45 65 26 13 23 13 6 3 6 10 10
0 0 0 0 0 0 0 0 0 0 0 0 0 0 0 0 0 0 3 6 6 6 16 32 81 97 100 100 100 100 100 100 100 87 77 68 61 65 74 71 68 55 45 29 0 6 10 13 6
0 0 0 0 0 0 0 0 0 0 0 0 0 0 0 0 0 0 6 6 16 10 13 23 55 90 100 97 97 94 90 90 90 94 81 81 77 90 71 90 87 81 77 48 23 19 39 23 10
0 0 0 0 0 0 0 0 0 0 0 0 0 0 0 0 0 0 3 6 16 35 23 10 35 61 90 87 84 77 74 71 74 81 84 81 87 97 97 90 90 90 90 81 61 48 42 68 6
0 0 0 0 0 0 0 0 0 0 0 0 0 0 0 0 0 0 6 10 16 48 45 19 29 52 77 84 77 68 45 42 39 52 61 71 81 97 94 87 87 81 87 81 74 39 68 65 52
0 0 0 0 0 0 0 0 0 0 0 0 0 0 0 0 0 3 6 13 16 32 45 35 29 45 68 71 55 45 26 19 23 32 39 52 71 74 90 94 90 90 84 77 74 71 65 55 61
0 0 0 0 0 0 0 0 0 0 0 0 0 0 0 0 0 0 3 0 10 23 29 48 45 55 55 48 42 32 13 6 6 16 32 58 71 68 65 81 84 77 81 71 77 71 71 68 61
0 0 0 0 0 0 0 0 0 0 0 0 0 0 0 0 0 0 0 0 3 13 19 39 48 39 32 23 13 10 3 3 3 23 32 55 65 71 71 74 65 71 61 58 68 68 61 61 52
0 0 0 0 0 0 0 0 0 0 0 0 0 0 0 0 0 0 0 0 0 3 6 13 16 10 10 6 3 3 3 3 6 23 35 45 48 39 45 39 39 39 39 29 52 58 58 45 45
0 0 0 0 0 0 0 0 0 0 0 0 0 0 0 0 0 0 0 0 0 0 0 3 6 6 6 3 10 3 3 10 26 29 26 29 35 26 23 23 19 26 29 23 29 39 35 29 35
0 0 0 0 0 0 0 0 0 0 0 0 0 0 0 0 0 0 0 0 0 0 3 6 3 3 6 10 3 6 16 23 35 23 23 19 10 13 16 16 10 13 23 19 19 19 19 19 23
0 0 0 0 0 0 0 0 0 0 0 0 0 0 0 0 0 0 0 0 0 0 3 3 3 10 13 13 13 16 23 23 19 19 19 19 13 10 3 3 3 3 6 10 10 13 19 13 3
0 0 0 0 0 0 0 0 0 0 0 0 0 0 0 0 0 0 0 0 0 0 3 3 3 6 13 16 16 16 16 19 19 19 6 10 3 3 0 0 0 0 3 10 10 10 10 3 3

GEFSSGP_con_cape1000_048.txt.gz
Probability
100 100 100 100 100 68 0 0 0 0 0 0 0 0 0 3 6 58 81 35 87 90 77 100 100 100 100 100 100 100 97 90 87 84 81 74 71 74 77 77 81 90 94 94 94 97 97 97 97
100 100 100 100 97 0 0 0 0 0 0 0 0 0 0 0 0 3 32 61 90 74 74 100 100 100 100 100 100 100 97 90 84 74 74 71 65 68 74 77 74 81 87 87 90 90 94 94 97
100 100 100 100 10 0 0 0 0 0 0 0 0 0 0 0 0 0 6 52 84 65 71 100 100 100 100 100 100 100 97 90 81 71 71 61 55 65 71 68 65 68 74 81 84 90 84 84 84
100 100 100 55 0 0 0 0 0 0 0 0 0 0 0 0 0 0 3 32 68 77 97 100 100 100 100 100 100 100 100 97 84 68 65 58 52 48 42 45 42 48 52 65 65 74 81 84 84
100 100 97 10 0 0 0 0 0 0 0 0 0 0 0 0 0 0 0 19 58 90 97 100 100 100 100 100 100 100 100 97 90 77 65 61 32 19 16 26 35 26 26 42 48 55 71 81 84
100 100 16 0 0 0 0 0 0 0 0 0 0 0 0 0 0 0 3 10 16 87 94 100 100 100 100 100 100 100 100 94 90 77 58 48 35 16 13 16 16 16 16 19 26 32 52 61 81
100 100 13 0 6 0 0 0 0 0 0 0 0 0 0 0 0 0 3 3 10 61 90 81 100 100 100 100 100 100 97 90 94 77 58 42 29 19 6 3 3 6 6 3 6 19 29 61 81
100 100 19 0 10 0 0 0 0 0 0 0 0 0 0 0 0 0 0 3 3 32 84 71 58 77 97 100 100 100 100 94 90 84 77 45 29 23 13 3 0 3 0 0 0 16 23 55 61
81 97 32 13 26 0 0 0 0 0 0 0 0 0 0 0 0 0 0 0 0 3 35 65 52 52 68 77 100 100 100 100 94 87 77 48 23 10 10 6 0 3 0 0 0 10 19 52 71
58 94 13 10 0 3 0 0 0 0 0 0 0 3 0 3 0 0 0 0 0 0 6 32 52 52 55 68 90 90 84 97 81 65 55 35 29 16 10 3 6 0 0 0 3 10 23 26 10
3 10 6 0 0 0 0 0 0 0 0 0 0 0 3 3 0 0 0 0 0 0 3 23 45 52 48 77 90 94 90 97 81 74 52 52 26 3 0 0 0 0 0 0 0 6 0 0 0
0 0 3 0 0 0 0 0 0 0 0 0 0 3 3 3 0 0 0 0 0 0 3 6 23 48 42 58 81 87 94 77 65 81 61 39 32 3 0 0 0 0 0 0 0 0 0 0 0
0 0 0 0 0 0 0 0 0 0 0 0 0 0 3 3 3 0 0 0 0 0 3 6 6 13 16 39 94 84 90 71 65 74 61 35 19 3 0 0 0 0 0 0 0 0 0 0 0
0 0 0 0 0 0 0 0 0 0 0 0 0 0 3 3 3 0 0 0 0 0 3 3 6 6 10 23 71 42 81 94 77 71 61 23 3 6 0 0 0 0 0 0 0 0 0 0 0
0 0 0 3 0 0 0 0 0 0 0 0 0 0 0 0 3 0 0 0 0 0 0 0 3 10 10 13 35 35 81 81 81 81 39 13 3 3 0 3 0 0 0 0 0 0 0 0 0
0 0 0 0 0 0 0 0 0 0 0 0 0 0 0 3 0 0 0 0 0 3 10 3 6 19 16 19 48 32 39 61 77 74 48 16 3 0 3 13 3 3 0 0 0 0 0 0 0
0 0 0 0 0 0 0 0 0 0 0 0 0 0 0 0 0 0 0 3 3 3 3 16 6 13 19 35 71 74 39 77 77 68 48 29 6 0 10 26 6 3 0 0 0 0 0 0 0
0 0 0 0 0 0 0 0 0 0 0 0 0 0 0 0 0 0 3 6 13 3 6 13 10 26 32 68 65 94 90 87 71 71 58 35 19 10 23 26 3 6 6 6 0 0 3 0 0
0 0 0 0 0 0 0 0 0 0 0 0 0 0 0 0 0 0 3 6 3 13 19 19 32 35 58 87 100 97 94 90 87 84 61 35 23 19 19 23 19 32 13 0 0 6 3 0 0
0 0 0 0 0 0 0 0 0 0 0 0 0 0 0 0 0 3 3 3 3 10 19 35 42 55 65 94 97 94 87 87 84 71 48 29 19 23 26 29 42 26 13 6 0 3 0 0 3
0 0 0 0 0 0 0 0 0 0 0 0 0 0 0 0 0 3 3 6 6 16 23 32 52 61 68 84 94 90 77 74 65 55 39 29 26 19 26 26 16 19 13 3 3 6 0 0 3
0 0 0 0 0 0 0 0 0 0 0 0 0 0 0 0 0 3 0 6 6 13 26 26 48 58 58 71 81 81 74 71 48 35 29 29 19 32 29 26 26 23 16 10 10 3 13 6 0
0 0 0 0 0 0 0 0 0 0 0 0 0 0 0 0 0 0 3 3 0 0 6 19 29 48 61 65 68 74 68 39 32 26 19 10 10 10 13 16 19 16 19 16 3 6 10 13 0
0 0 0 0 0 0 0 0 0 0 0 0 0 0 0 0 0 0 3 3 0 0 3 13 29 32 32 58 45 39 35 23 10 10 0 0 0 0 6 13 13 13 10 10 13 16 13 23 10
0 0 0 0 0 0 0 0 0 0 0 0 0 0 0 0 0 0 0 3 0 0 6 3 19 16 29 23 23 23 16 10 6 0 0 0 0 0 3 3 6 13 13 16 16 19 13 19 6
0 0 0 0 0 0 0 0 0 0 0 0 0 0 0 0 0 0 3 3 0 0 0 3 6 0 10 16 13 10 3 6 0 0 0 0 0 3 3 6 6 10 10 19 19 29 16 13 6
0 0 0 0 0 0 0 0 0 0 0 0 0 0 0 0 0 0 0 0 0 0 3 0 0 0 3 0 0 0 0 0 0 0 0 3 3 10 10 10 10 6 10 6 10 10 3 3 3
0 0 0 0 0 0 0 0 0 0 0 0 0 0 0 0 0 0 0 0 0 0 3 3 3 0 3 0 0 3 3 3 6 6 3 6 3 3 6 3 3 6 6 6 10 6 6 3 3
0 0 0 0 0 0 0 0 0 0 0 0 0 0 0 0 0 0 0 0 0 3 3 3 3 0 3 6 3 3 3 6 6 6 0 0 3 3 3 3 3 3 3 3 6 6 3 3 3
0 0 0 0 0 0 0 0 0 0 0 0 0 0 0 0 0 0 0 0 0 0 0 3 3 3 3 6 3 3 3 3 3 3 6 3 6 6 3 0 0 3 3 3 3 3 3 0 0

GEFSSGP_con_cape1000_054.txt.gz
Probability
100 100 100 97 3 0 0 0 0 0 0 0 0 0 0 0 0 0 3 35 13 52 100 100 100 100 100 100 100 100 100 94 94 94 90 90 87 94 100 97 97 97 94 97 100 100 100 100 100
100 100 100 32 0 0 0 0 0 0 0 0 0 0 0 3 0 23 29 32 19 71 100 100 100 100 100 100 100 100 97 94 90 90 90 81 90 90 84 90 90 90 90 97 97 97 97 100 100
100 100 97 29 0 0 0 0 0 0 0 0 0 0 0 0 3 16 29 29 29 68 94 100 100 100 100 100 100 100 97 94 90 90 87 84 84 87 84 87 84 81 84 87 94 90 90 90 94
94 90 32 6 0 0 0 0 0 0 0 0 0 0 0 0 3 39 32 26 23 61 97 100 100 100 100 100 100 100 100 90 84 87 87 74 71 71 68 71 71 65 68 71 84 87 87 90 90
77 35 6 0 0 0 0 0 0 0 0 0 0 0 0 0 48 48 29 23 26 61 100 100 100 100 100 100 100 100 100 87 84 87 74 68 65 48 48 48 42 52 55 48 61 84 84 84 87
35 6 0 0 0 0 0 0 0 0 0 0 0 0 0 3 55 55 29 32 42 74 97 100 100 100 100 100 100 100 100 100 87 84 71 68 52 32 39 32 29 26 32 32 55 68 71 77 84
19 16 0 0 0 0 0 0 0 0 0 0 0 0 0 0 6 52 45 52 65 65 90 100 100 100 100 100 100 100 100 100 100 87 77 58 55 32 23 26 23 10 13 19 26 48 58 61 77
6 0 0 0 0 0 0 0 0 0 0 0 0 0 0 0 0 13 52 71 74 58 84 100 100 100 100 100 100 100 100 97 97 94 81 61 55 42 19 13 16 6 3 6 16 29 35 55 61
0 0 0 0 0 0 0 0 0 0 0 0 0 0 0 0 0 6 39 84 74 58 58 84 97 87 90 100 100 100 100 100 100 97 94 77 26 6 13 0 10 6 0 0 6 10 29 32 35
0 0 0 0 0 0 0 0 0 0 0 0 0 0 0 0 0 10 26 81 81 74 48 32 48 68 68 81 97 94 97 90 81 52 58 39 0 0 3 0 10 10 0 3 6 10 19 29 0
0 0 0 0 0 0 0 0 0 0 0 0 0 0 0 0 0 0 10 48 68 74 61 39 26 26 52 52 65 68 55 48 35 26 16 10 0 0 0 0 10 10 3 0 0 6 3 0 0
0 0 0 0 0 0 0 0 0 0 0 0 0 0 0 0 0 0 3 16 29 45 39 35 29 19 16 29 58 35 23 26 23 19 10 0 0 0 0 0 0 0 0 0 0 0 0 0 0
0 0 0 0 0 0 0 0 0 0 0 0 0 0 0 0 0 0 0 3 6 16 42 39 26 16 13 16 32 29 23 23 19 10 10 0 0 0 0 0 0 0 0 0 0 0 0 0 0
0 0 0 0 0 0 0 0 0 0 0 0 0 0 0 0 0 0 0 0 0 0 13 26 32 26 23 32 29 29 19 19 6 3 6 0 0 0 0 0 0 0 0 0 0 0 0 0 0
0 0 0 0 0 0 0 0 0 0 0 0 0 0 0 0 0 0 0 0 0 0 0 3 23 23 13 19 26 26 13 6 3 3 3 3 0 0 0 0 0 0 0 0 0 0 0 0 0
0 0 0 0 0 0 0 0 0 0 0 0 0 0 0 0 0 0 0 0 0 0 0 0 3 6 6 13 16 16 16 3 3 3 3 3 0 0 0 0 0 0 0 0 0 0 0 0 0
0 0 0 0 0 0 0 0 0 0 0 0 0 0 0 0 0 0 3 0 0 0 0 0 0 0 0 0 10 6 10 10 6 3 3 3 3 0 0 0 0 0 0 0 0 0 0 0 0
0 0 0 0 0 0 0 0 0 0 0 0 0 0 0 0 0 0 0 0 0 0 0 0 0 3 3 3 3 0 0 10 6 10 10 3 3 0 0 0 0 0 0 0 0 0 0 0 0
0 0 0 0 0 0 0 0 0 0 0 0 0 0 0 0 0 0 0 0 0 0 0 0 0 0 0 6 0 3 3 10 6 3 6 6 3 0 0 0 0 0 0 0 0 0 0 0 0
0 0 0 0 0 0 0 0 0 0 0 0 0 0 0 0 0 0 0 0 0 0 0 0 0 0 0 3 3 3 3 3 6 6 6 6 6 3 0 0 0 0 0 0 0 0 0 0 0
0 0 0 0 0 0 0 0 0 0 0 0 0 0 0 0 0 0 0 0 0 0 0 0 0 0 0 0 3 0 3 0 6 0 6 10 6 3 0 0 0 0 0 0 0 0 0 0 0
0 0 0 0 0 0 0 0 0 0 0 0 0 0 0 0 0 0 0 0 0 0 0 0 0 0 0 0 3 6 10 10 6 6 6 3 0 0 0 0 0 0 0 0 0 0 0 0 0
0 0 0 0 0 0 0 0 0 0 0 0 0 0 0 0 0 0 0 0 0 0 0 0 0 0 0 3 3 6 6 6 6 3 3 0 0 0 0 0 0 0 0 0 0 0 0 0 0
0 0 0 0 0 0 0 0 0 0 0 0 0 0 0 0 0 0 0 0 0 0 0 0 0 0 0 3 3 3 0 3 6 3 3 3 3 0 0 0 0 0 0 0 0 0 0 0 0
0 0 0 0 0 0 0 0 0 0 0 0 0 0 0 0 0 0 0 0 0 0 0 0 0 0 0 0 0 0 0 0 6 3 3 0 0 0 0 0 0 0 0 0 0 0 0 0 0
0 0 0 0 0 0 0 0 0 0 0 0 0 0 0 0 0 0 0 0 0 0 0 0 0 0 0 0 0 0 0 0 3 0 0 0 0 0 0 0 0 0 0 0 0 0 0 0 0
0 0 0 0 0 0 0 0 0 0 0 0 0 0 0 0 0 0 0 0 0 0 0 0 0 0 0 0 0 0 0 0 0 0 0 0 0 0 0 0 0 0 0 0 0 0 0 0 0
0 0 0 0 0 0 0 0 0 0 0 0 0 0 0 0 0 0 0 0 0 0 0 0 0 0 0 0 0 0 0 0 0 0 0 0 0 0 0 0 0 0 0 0 0 0 0 0 0
0 0 0 0 0 0 0 0 0 0 0 0 0 0 0 0 0 0 0 0 0 0 0 0 0 0 3 3 0 0 0 0 0 0 0 0 0 0 0 0 0 0 0 0 0 0 0 0 0
0 0 0 0 0 0 0 0 0 0 0 0 0 0 0 0 0 0 0 0 0 0 0 0 0 0 0 0 0 0 0 0 0 0 0 0 0 0 0 0 0 0 0 0 0 0 0 0 0

GEFSSGP_con_cape1000_060.txt.gz
Probability
100 100 87 6 0 0 0 0 0 0 0 0 0 0 0 0 0 0 0 0 3 42 100 100 100 100 100 100 100 100 97 97 94 94 90 90 90 90 90 94 97 97 97 100 100 100 100 100 100
94 100 29 0 0 0 0 0 0 0 0 0 0 0 0 3 32 3 10 6 10 77 100 100 100 100 100 100 100 100 97 87 84 81 77 84 84 84 90 87 87 90 90 94 97 97 100 100 100
97 94 19 0 0 0 0 0 0 0 0 0 0 0 0 10 35 16 13 19 35 84 97 100 100 100 100 100 100 97 94 94 84 84 74 84 84 81 84 84 87 84 84 87 87 87 94 100 100
84 10 0 0 0 0 0 0 0 0 0 0 0 0 0 10 26 26 16 23 52 90 100 100 100 100 100 100 100 97 90 94 87 81 74 81 81 77 74 71 71 74 74 74 84 90 90 94 94
10 0 0 0 0 0 0 0 0 0 0 0 0 0 0 32 35 29 26 26 48 90 97 100 100 100 100 100 100 100 94 94 87 81 74 68 65 52 52 52 55 61 61 61 71 84 81 77 90
0 0 0 0 0 0 0 0 0 0 0 0 0 0 3 39 39 29 23 26 42 81 97 100 100 100 100 100 100 100 97 97 94 84 74 61 65 52 35 29 32 39 39 48 58 61 68 71 84
3 0 0 0 0 0 0 0 0 0 0 0 0 0 6 39 39 29 19 16 35 81 100 100 100 100 100 100 100 100 100 100 100 97 84 71 58 52 39 26 26 23 23 26 26 45 61 61 68
0 0 0 0 0 0 0 0 0 0 0 0 0 0 0 26 32 19 16 19 35 65 100 100 100 100 100 100 100 100 100 100 100 100 94 77 65 42 32 16 10 3 6 6 13 16 32 48 52
0 0 0 0 0 0 0 0 0 0 0 0 0 0 0 19 32 19 16 23 35 48 58 87 90 100 100 100 100 100 100 100 100 100 100 87 35 13 23 13 10 0 3 0 3 10 19 19 13
0 0 0 0 0 0 0 0 0 0 0 0 0 3 10 29 26 26 32 29 35 42 52 65 77 81 90 100 100 100 100 100 81 61 58 45 10 0 6 6 16 6 0 3 3 3 6 0 0
0 0 0 0 0 0 0 0 0 0 0 0 0 0 10 16 19 19 26 23 26 29 35 58 65 65 65 77 65 77 84 74 55 39 29 23 3 0 0 0 0 0 3 0 0 0 0 0 0
0 0 0 0 0 0 0 0 0 0 0 0 0 0 3 10 10 10 13 16 19 19 23 26 61 42 48 35 32 45 58 45 32 19 6 3 3 0 0 0 0 0 0 0 0 0 0 0 0
0 0 0 0 0 0 0 0 0 0 0 0 0 0 0 0 3 3 3 6 6 10 3 13 23 19 19 23 19 32 45 42 32 23 10 3 3 3 0 0 0 0 0 0 0 0 0 0 0
0 0 0 0 0 0 0 0 0 0 0 0 0 0 0 0 0 0 0 0 0 6 3 3 13 19 6 16 13 23 26 29 16 16 13 10 3 3 0 0 0 0 0 0 0 0 0 0 0
0 0 0 0 0 0 0 0 0 0 0 0 0 0 0 0 0 0 0 0 0 0 0 3 0 13 6 10 10 16 19 19 19 16 10 10 6 3 0 0 0 0 0 0 0 0 0 0 0
0 0 0 0 0 0 0 0 0 0 0 0 0 0 0 0 0 0 0 0 0 0 0 0 3 6 6 3 13 23 16 13 16 13 10 6 3 0 0 0 0 0 0 0 0 0 0 0 0
0 0 0 0 0 0 0 0 0 0 0 0 0 0 0 0 0 0 0 0 0 0 0 0 0 0 0 10 6 10 16 13 19 13 10 6 3 0 0 0 0 0 0 0 0 0 0 0 0
0 0 0 0 0 0 0 0 0 0 0 0 0 0 0 0 0 0 0 0 0 0 0 0 0 0 0 0 6 3 3 6 16 13 13 6 3 3 0 0 0 0 0 0 0 0 0 0 0
0 0 0 0 0 0 0 0 0 0 0 0 0 0 0 0 0 0 0 0 0 0 0 0 0 0 0 0 0 0 0 0 6 13 13 6 3 3 0 0 0 0 0 0 0 0 0 0 0
0 0 0 0 0 0 0 0 0 0 0 0 0 0 0 0 0 0 0 0 0 0 0 0 0 0 0 0 0 0 0 0 3 6 3 3 3 3 3 0 0 0 0 0 0 0 0 0 0
0 0 0 0 0 0 0 0 0 0 0 0 0 0 0 0 0 0 0 0 0 0 0 0 0 0 0 0 0 3 0 0 3 3 3 0 0 0 3 0 0 0 0 0 0 0 0 0 0
0 0 0 0 0 0 0 0 0 0 0 0 0 0 0 0 0 0 0 0 0 0 0 0 0 0 0 0 6 6 6 6 3 0 0 0 0 0 0 0 0 0 0 0 0 0 0 0 0
0 0 0 0 0 0 0 0 0 0 0 0 0 0 0 0 0 0 0 0 0 0 0 0 0 0 0 0 3 3 3 3 0 0 0 0 0 0 0 0 0 0 0 0 0 0 0 0 0
0 0 0 0 0 0 0 0 0 0 0 0 0 0 0 0 0 0 0 0 0 0 0 0 0 0 0 0 0 3 3 3 0 3 0 0 0 0 0 0 0 0 0 0 0 0 0 0 0
0 0 0 0 0 0 0 0 0 0 0 0 0 0 0 0 0 0 0 0 0 0 0 0 0 0 0 0 0 0 0 0 0 3 3 0 0 0 0 0 0 0 0 0 0 0 0 0 0
0 0 0 0 0 0 0 0 0 0 0 0 0 0 0 0 0 0 0 0 0 0 0 0 0 0 0 0 0 0 0 0 0 3 3 0 0 0 0 0 0 0 0 0 0 0 0 0 0
0 0 0 0 0 0 0 0 0 0 0 0 0 0 0 0 0 0 0 0 0 0 0 0 0 0 0 0 0 0 0 3 0 0 0 0 0 0 0 0 0 0 0 0 0 0 0 0 0
0 0 0 0 0 0 0 0 0 0 0 0 0 0 0 0 0 0 0 0 0 0 0 0 0 0 0 0 0 0 0 0 0 0 0 0 0 0 0 0 0 0 0 0 0 0 0 0 0
0 0 0 0 0 0 0 0 0 0 0 0 0 0 0 0 0 0 0 0 0 0 0 0 0 0 0 0 0 0 0 0 0 0 0 0 0 0 0 0 0 0 0 0 0 0 0 0 0
0 0 0 0 0 0 0 0 0 0 0 0 0 0 0 0 0 0 0 0 0 0 0 0 0 0 0 0 0 0 0 0 0 0 0 0 0 0 0 0 0 0 0 0 0 0 0 0 0

GEFSSGP_con_cape1000_066.txt.gz
Probability
100 100 100 97 13 0 0 0 0 0 0 0 0 0 0 0 0 32 42 6 3 16 84 100 100 100 100 100 100 100 100 97 94 94 94 90 94 94 87 90 90 94 94 97 97 100 100 100 100
100 100 97 48 3 0 0 0 0 0 0 0 0 0 0 23 26 29 26 10 10 26 90 100 100 100 100 100 100 100 97 94 94 94 90 87 90 90 84 84 84 84 90 97 97 97 100 100 100
100 97 74 6 0 0 0 0 0 0 0 0 0 0 6 10 19 26 29 13 10 45 90 100 100 100 100 100 100 100 97 94 90 90 81 84 84 84 77 77 84 81 81 77 87 87 87 87 90
100 87 26 0 0 0 0 0 0 0 0 0 0 0 10 39 35 26 26 13 23 58 87 100 100 100 100 100 100 100 97 87 84 84 84 84 84 71 71 68 71 68 71 81 84 87 90 90 84
81 55 0 0 0 0 0 0 0 0 0 0 0 0 19 58 45 39 23 23 26 48 74 100 100 100 100 100 100 100 100 97 90 84 84 81 77 74 71 61 58 58 68 65 77 84 74 81 74
68 6 0 0 0 0 0 0 0 0 0 0 0 3 45 65 42 39 39 39 19 48 61 84 100 100 100 100 100 100 100 97 90 84 74 71 61 55 58 42 48 52 52 55 58 52 52 58 68
65 16 0 0 0 0 0 0 0 0 3 0 0 3 26 52 55 42 45 39 29 32 35 65 94 100 100 100 100 100 100 100 94 90 84 71 58 45 35 32 32 35 32 39 39 52 42 55 55
58 3 0 0 0 0 0 0 0 6 0 3 0 6 29 48 61 55 42 42 42 39 39 32 65 90 97 100 100 100 100 100 100 100 94 87 68 55 42 26 19 16 13 16 23 26 35 39 42
13 3 0 0 0 3 0 0 0 0 3 6 10 10 26 48 61 61 55 42 35 39 35 32 42 65 68 71 94 97 100 100 100 100 100 90 81 45 45 13 10 6 6 6 10 6 26 26 19
32 23 10 10 0 3 3 3 0 3 0 3 10 26 32 48 52 39 35 32 29 45 45 35 35 52 52 61 61 97 94 97 94 97 97 90 65 32 16 3 6 10 3 0 6 6 6 3 3
13 29 10 3 0 0 0 0 0 0 0 0 13 13 26 29 26 23 26 23 26 23 29 29 48 58 65 81 81 87 97 97 90 87 84 84 61 39 16 16 19 16 10 3 10 3 3 0 0
10 0 3 0 0 0 0 0 0 0 0 3 10 16 13 10 10 10 16 16 19 19 19 29 32 39 68 68 77 81 87 90 90 90 68 71 74 58 26 16 10 6 6 3 3 3 0 0 0
6 0 0 0 0 6 0 0 0 0 0 3 6 3 3 0 0 0 0 3 6 6 10 13 19 35 35 48 74 65 74 74 74 87 84 71 81 68 42 19 16 13 6 3 0 0 0 0 0
6 3 0 0 0 0 0 0 0 0 0 0 3 0 0 0 0 0 0 0 0 3 3 3 6 19 32 35 55 65 65 81 81 84 81 65 90 71 61 32 26 16 13 6 3 0 0 0 0
6 0 0 0 0 0 0 0 0 0 0 0 3 3 3 3 3 3 3 3 0 3 6 6 6 6 16 23 29 45 65 65 74 77 71 65 81 68 68 48 35 23 16 3 3 0 0 0 0
0 0 0 0 0 0 0 0 0 0 0 3 3 3 3 0 0 0 0 0 0 0 0 6 3 3 6 13 19 39 35 61 65 65 68 71 71 71 68 68 52 26 23 10 6 3 3 0 0
0 0 0 0 0 0 0 0 0 0 0 0 0 0 0 0 0 0 0 0 0 0 0 0 0 3 6 6 10 23 32 45 61 65 71 68 68 68 77 77 71 26 26 19 3 10 3 0 3
0 0 0 0 0 0 0 0 0 0 0 0 0 0 0 0 0 0 0 0 0 0 0 0 0 0 3 3 3 19 29 42 55 65 65 68 68 61 68 61 61 45 42 35 16 6 26 16 16
0 0 0 0 0 0 0 0 0 0 0 0 0 0 0 0 0 0 0 0 0 0 0 0 0 0 0 3 3 13 19 29 42 48 61 68 68 68 65 58 58 55 45 39 19 26 10 19 10
0 0 0 0 0 0 0 0 0 0 0 0 0 0 0 0 0 0 0 0 0 0 0 0 0 0 0 3 6 10 19 16 29 42 48 55 65 68 58 52 58 61 48 42 35 29 32 23 10
0 0 0 0 0 0 0 0 0 0 0 0 0 0 0 0 0 0 0 0 0 0 0 0 0 0 0 3 3 6 13 23 26 35 35 42 48 52 58 55 52 58 55 45 35 39 26 39 10
0 0 0 0 0 0 0 0 0 0 0 0 0 0 0 0 0 0 0 0 0 0 0 0 0 0 0 3 3 3 13 16 16 23 29 32 39 45 48 55 52 45 42 35 29 26 19 19 26
0 0 0 0 0 0 0 0 0 0 0 0 0 0 0 0 0 0 0 0 0 0 0 0 0 0 3 3 3 3 3 6 16 26 19 29 35 42 39 48 45 42 32 23 26 19 16 10 16
0 0 0 0 0 0 0 0 0 0 0 0 0 0 0 0 0 0 0 0 0 0 0 0 0 0 0 3 0 3 6 10 10 13 19 29 35 39 35 39 48 39 35 23 19 19 19 13 10
0 0 0 0 0 0 0 0 0 0 0 0 0 0 0 0 0 0 0 0 0 0 0 0 0 0 3 3 0 0 0 10 13 16 19 23 19 29 29 16 32 29 26 26 19 13 13 10 6
0 0 0 0 0 0 0 0 0 0 0 0 0 0 0 0 0 0 0 0 0 0 0 0 0 0 3 3 3 3 3 10 16 13 23 23 19 16 19 23 26 23 23 26 29 23 16 10 10
0 0 0 0 0 0 0 0 0 0 0 0 0 0 0 0 0 0 0 0 0 0 0 0 0 0 0 0 0 0 3 6 6 6 6 16 13 6 13 19 16 16 19 16 19 13 6 6 6
0 0 0 0 0 0 0 0 0 0 0 0 0 0 0 0 0 0 0 0 0 0 0 0 0 0 0 0 0 0 0 0 3 10 10 13 16 16 13 23 13 10 16 13 13 3 13 10 3
0 0 0 0 0 0 0 0 0 0 0 0 0 0 0 0 0 0 0 0 0 0 0 0 0 0 0 0 0 0 0 0 0 3 3 6 16 19 13 10 10 6 6 13 10 6 3 6 3
0 0 0 0 0 0 0 0 0 0 0 0 0 0 0 0 0 0 0 0 0 0 0 0 0 0 0 0 0 0 0 0 0 0 3 3 3 6 3 3 6 3 6 6 13 6 3 0 0